This demonstration page uses our WeatherBlox Daily Observations layout. Learn more.

Left ArrowRight Arrow

44.89941, -97.11507

Hourly Observations for May 2, 2022

Temp ( °F °C ) Dew Point ( °F °C ) Humidity (%) Winds ( mph kmh ) Pressure ( in mb ) Visibility ( mi km ) Precip ( " mm )
12:53 am 00:53 Cloudy 40 4.4 34 1.1 79 79 NNW 9 15 30.09 1019 10 16 0.00 0.00
1:53 am 01:53 Cloudy 39 3.9 35 1.7 86 86 NNW 7 11 30.09 1019 10 16 0.00 0.00
2:53 am 02:53 Cloudy 39 3.9 33 0.6 79 79 N 9 15 30.09 1019 10 16 0.00 0.00
3:53 am 03:53 Cloudy 38 3.3 34 1.1 86 86 Calm 30.13 1020 10 16 0.00 0.00
4:53 am 04:53 Cloudy 38 3.3 33 0.6 83 83 N 7 11 30.11 1020 10 16 0.00 0.00
5:53 am 05:53 Cloudy 37 2.8 33 0.6 86 86 N 6 9 30.12 1020 10 16 0.00 0.00
6:17 am 06:17 Cloudy 37 2.8 33 0.6 86 86 NNW 7 11 30.14 1021 10 16 0.00 0.00
6:53 am 06:53 Cloudy 37 2.8 33 0.6 86 86 N 9 15 30.11 1020 10 16 0.00 0.00
7:53 am 07:53 Cloudy 37 2.8 33 0.6 86 86 N 14 22 30.12 1020 10 16 0.00 0.00
8:09 am 08:09 Cloudy 37 2.8 33 0.6 86 86 N 12 19 30.14 1021 10 16 0.00 0.00
8:35 am 08:35 Cloudy 37 2.8 33 0.6 86 86 N 13 20 30.15 1021 10 16 0.00 0.00
8:53 am 08:53 Cloudy 37 2.8 33 0.6 86 86 N 14 22 30.14 1021 10 16 0.00 0.00
9:21 am 09:21 Cloudy 36 2.2 32 0 86 86 N 16 26 30.15 1021 10 16 0.00 0.00
9:53 am 09:53 Cloudy 36 2.2 32 0 86 86 N 16 26 30.14 1021 10 16 0.00 0.00
10:53 am 10:53 Cloudy 37 2.8 33 0.6 86 86 N 12 19 30.15 1021 10 16 0.00 0.00
11:35 am 11:35 Cloudy 39 3.9 33 0.6 79 79 NE 12 19 30.15 1021 10 16 0.00 0.00
11:53 am 11:53 Cloudy 38 3.3 33 0.6 83 83 NE 8 13 30.15 1021 10 16 0.00 0.00
12:53 pm 12:53 Cloudy 39 3.9 33 0.6 79 79 NE 5 7 30.14 1021 10 16 0.00 0.00
1:53 pm 13:53 Cloudy 39 3.9 34 1.1 82 82 N 12 19 30.13 1020 10 16 0.00 0.00
2:53 pm 14:53 Cloudy 41 5 34 1.1 76 76 N 7 11 30.11 1020 10 16 0.00 0.00
3:40 pm 15:40 Cloudy 42 5.6 34 1.1 73 73 N 9 15 30.10 1019 10 16 0.00 0.00
3:53 pm 15:53 Cloudy 42 5.6 34 1.1 73 73 NNE 13 20 30.10 1019 10 16 0.00 0.00
4:53 pm 16:53 Cloudy 43 6.1 35 1.7 74 74 N 10 17 30.09 1019 10 16 0.00 0.00
5:53 pm 17:53 Cloudy 43 6.1 34 1.1 71 71 NE 9 15 30.09 1019 10 16 0.00 0.00
6:53 pm 18:53 Cloudy 40 4.4 33 0.6 77 77 NNE 14 22 30.09 1019 10 16 0.00 0.00
7:11 pm 19:11 Cloudy 39 3.9 33 0.6 79 79 N 14 22 30.10 1019 10 16 0.00 0.00
7:53 pm 19:53 Cloudy 38 3.3 33 0.6 83 83 N 15 24 30.09 1019 10 16 0.00 0.00
8:53 pm 20:53 Cloudy 37 2.8 32 0 82 82 NNE 13 20 30.10 1019 10 16 0.00 0.00
9:53 pm 21:53 Cloudy 37 2.8 33 0.6 86 86 NNE 12 19 30.11 1020 10 16 0.00 0.00
10:33 pm 22:33 Cloudy 36 2.2 32 0 86 86 NNE 14 22 30.13 1020 10 16 0.00 0.00
10:53 pm 22:53 Cloudy 36 2.2 33 0.6 89 89 N 12 19 30.12 1020 10 16 0.00 0.00
11:16 pm 23:16 Cloudy 36 2.2 33 0.6 89 89 NNE 10 17 30.13 1020 10 16 0.00 0.00
11:29 pm 23:29 Cloudy 36 2.2 33 0.6 89 89 NNE 12 19 30.14 1021 10 16 0.00 0.00
11:53 pm 23:53 Cloudy 36 2.2 32 0 86 86 N 16 26 30.11 1020 10 16 0.00 0.00

Powered by AerisWeather